Satellite: NOAA-11 Catalog number: 19531 Epoch time: 12201.74317363 Element set: 0996 Inclination: 098.7333 deg RA of node: 286.2174 deg Eccentricity: 0.0011935 Arg of perigee: 128.9427 deg Mean anomaly: 231.2809 deg Mean motion: 14.14972578 rev/day Decay rate: -1.82e-06 rev/day^2 Epoch rev: 22911 Checksum: 310
Satellite: NOAA-12 Catalog number: 21263 Epoch time: 12201.96667966 Element set: 0499 Inclination: 098.7274 deg RA of node: 223.4753 deg Eccentricity: 0.0014793 Arg of perigee: 105.0643 deg Mean anomaly: 255.2177 deg Mean motion: 14.25507388 rev/day Decay rate: 1.7e-07 rev/day^2 Epoch rev: 10122 Checksum: 303
Satellite: MET-3/5 Catalog number: 21655 Epoch time: 12201.43533565 Element set: 0001 Inclination: 082.5582 deg RA of node: 129.4107 deg Eccentricity: 0.0012335 Arg of perigee: 238.9263 deg Mean anomaly: 121.0649 deg Mean motion: 13.17037280 rev/day Decay rate: 3.09e-06 rev/day^2 Epoch rev: 00589 Checksum: 268
Satellite: MET-2/21 Catalog number: 22782 Epoch time: 12201.84114151 Element set: 0477 Inclination: 082.5463 deg RA of node: 006.5989 deg Eccentricity: 0.0023885 Arg of perigee: 063.2002 deg Mean anomaly: 297.1604 deg Mean motion: 13.83685328 rev/day Decay rate: 2.9e-07 rev/day^2 Epoch rev: 95368 Checksum: 308
Satellite: OKEAN-4 Catalog number: 23317 Epoch time: 12202.88388509 Element set: 947 Inclination: 082.5387 deg RA of node: 359.6952 deg Eccentricity: 0.0019861 Arg of perigee: 238.6996 deg Mean anomaly: 121.2274 deg Mean motion: 14.83854467 rev/day Decay rate: 6.67e-06 rev/day^2 Epoch rev: 95980 Checksum: 365
Satellite: NOAA-14 Catalog number: 23455 Epoch time: 12201.95294684 Element set: 0980 Inclination: 098.8261 deg RA of node: 285.0400 deg Eccentricity: 0.0008733 Arg of perigee: 223.2805 deg Mean anomaly: 136.7677 deg Mean motion: 14.13908722 rev/day Decay rate: -1.34e-06 rev/day^2 Epoch rev: 90542 Checksum: 303
Satellite: NOAA-15 Catalog number: 25338 Epoch time: 12201.63457484 Element set: 0339 Inclination: 098.6909 deg RA of node: 188.2394 deg Eccentricity: 0.0011081 Arg of perigee: 019.9400 deg Mean anomaly: 340.2198 deg Mean motion: 14.25096418 rev/day Decay rate: 2.17e-06 rev/day^2 Epoch rev: 73747 Checksum: 314
Satellite: RESURS Catalog number: 25394 Epoch time: 12201.92768328 Element set: 140 Inclination: 098.3218 deg RA of node: 188.4443 deg Eccentricity: 0.0001946 Arg of perigee: 115.3927 deg Mean anomaly: 244.7455 deg Mean motion: 14.24290885 rev/day Decay rate: 4.2e-07 rev/day^2 Epoch rev: 72906 Checksum: 304
Satellite: FENGYUN1 Catalog number: 25730 Epoch time: 12202.92977473 Element set: 653 Inclination: 098.8467 deg RA of node: 161.3274 deg Eccentricity: 0.0017842 Arg of perigee: 270.1222 deg Mean anomaly: 089.7899 deg Mean motion: 14.09672721 rev/day Decay rate: 8.78e-06 rev/day^2 Epoch rev: 67936 Checksum: 343
Satellite: OKEAN-0 Catalog number: 25860 Epoch time: 12201.90753524 Element set: 0702 Inclination: 097.9387 deg RA of node: 163.8868 deg Eccentricity: 0.0001595 Arg of perigee: 096.3730 deg Mean anomaly: 263.7660 deg Mean motion: 14.74245218 rev/day Decay rate: 3.98e-06 rev/day^2 Epoch rev: 69939 Checksum: 336
Satellite: NOAA-16 Catalog number: 26536 Epoch time: 12201.68663361 Element set: 0826 Inclination: 099.0911 deg RA of node: 244.3075 deg Eccentricity: 0.0010338 Arg of perigee: 357.8181 deg Mean anomaly: 002.2948 deg Mean motion: 14.12760478 rev/day Decay rate: 2.56e-06 rev/day^2 Epoch rev: 60962 Checksum: 303
Satellite: NOAA-17 Catalog number: 27453 Epoch time: 12201.75568078 Element set: 0775 Inclination: 098.3354 deg RA of node: 227.1455 deg Eccentricity: 0.0012647 Arg of perigee: 063.9805 deg Mean anomaly: 296.2666 deg Mean motion: 14.24460445 rev/day Decay rate: 2.44e-06 rev/day^2 Epoch rev: 52339 Checksum: 322
Satellite: NOAA-18 Catalog number: 28654 Epoch time: 12201.81106137 Element set: 0256 Inclination: 099.0467 deg RA of node: 160.1731 deg Eccentricity: 0.0015201 Arg of perigee: 064.6683 deg Mean anomaly: 295.6083 deg Mean motion: 14.11674493 rev/day Decay rate: 1.58e-06 rev/day^2 Epoch rev: 36916 Checksum: 298
Satellite: NOAA-19 Catalog number: 33591 Epoch time: 12201.82620462 Element set: 0446 Inclination: 098.8641 deg RA of node: 141.2118 deg Eccentricity: 0.0013294 Arg of perigee: 291.4108 deg Mean anomaly: 068.5673 deg Mean motion: 14.11362075 rev/day Decay rate: 2.60e-06 rev/day^2 Epoch rev: 17761 Checksum: 284
/EX SB KEPS @ AMSAT $ORB12202.M Orbital Elements 12202.MISC
HR AMSAT ORBITAL ELEMENTS FOR MANNED AND MISCELLANEOUS SATELLITES FROM WA5QGD FORT WORTH,TX July 20, 2012 Send SUBSCRIBE KEPS/UNSUBSCRIBE KEPS to [email protected] only BID: ORB12202.M TO ALL RADIO AMATEURS BT
Satellite: HUBBLE Catalog number: 20580 Epoch time: 12201.67029279 Element set: 37 Inclination: 028.4717 deg RA of node: 290.9586 deg Eccentricity: 0.0003310 Arg of perigee: 047.7488 deg Mean anomaly: 312.3240 deg Mean motion: 15.02635383 rev/day Decay rate: 1.482e-05 rev/day^2 Epoch rev: 1962 Checksum: 278
Satellite: ISS Catalog number: 25544 Epoch time: 12202.86303361 Element set: 968 Inclination: 051.6441 deg RA of node: 314.0699 deg Eccentricity: 0.0000553 Arg of perigee: 260.8060 deg Mean anomaly: 193.0038 deg Mean motion: 15.54606717 rev/day Decay rate: 7.823e-05 rev/day^2 Epoch rev: 78325 Checksum: 287
Satellite: CO-58 Catalog number: 28895 Epoch time: 12202.64954313 Element set: 230 Inclination: 097.9093 deg RA of node: 067.4444 deg Eccentricity: 0.0018680 Arg of perigee: 049.2776 deg Mean anomaly: 311.0013 deg Mean motion: 14.60680934 rev/day Decay rate: 3.30e-06 rev/day^2 Epoch rev: 35854 Checksum: 307
Satellite: FALCON Catalog number: 30776 Epoch time: 12202.89604595 Element set: 394 Inclination: 035.4308 deg RA of node: 070.9142 deg Eccentricity: 0.0003226 Arg of perigee: 298.5216 deg Mean anomaly: 061.5177 deg Mean motion: 15.07781171 rev/day Decay rate: 2.584e-05 rev/day^2 Epoch rev: 29534 Checksum: 299
Satellite: MAST Catalog number: 31126 Epoch time: 12201.97537560 Element set: 0517 Inclination: 097.8745 deg RA of node: 211.1577 deg Eccentricity: 0.0094305 Arg of perigee: 009.1920 deg Mean anomaly: 351.0980 deg Mean motion: 14.54203829 rev/day Decay rate: 5.66e-06 rev/day^2 Epoch rev: 27903 Checksum: 291
Satellite: CAPE1 Catalog number: 31130 Epoch time: 12202.58965702 Element set: 521 Inclination: 097.8791 deg RA of node: 208.0977 deg Eccentricity: 0.0102054 Arg of perigee: 020.7265 deg Mean anomaly: 339.8028 deg Mean motion: 14.52995643 rev/day Decay rate: 5.20e-06 rev/day^2 Epoch rev: 27862 Checksum: 296
Satellite: COMPASS Catalog number: 32787 Epoch time: 12201.63468934 Element set: 0360 Inclination: 097.7986 deg RA of node: 262.2515 deg Eccentricity: 0.0014197 Arg of perigee: 318.1079 deg Mean anomaly: 041.8948 deg Mean motion: 14.84129881 rev/day Decay rate: 1.765e-05 rev/day^2 Epoch rev: 22862 Checksum: 332
Satellite: AAUSAT2 Catalog number: 32788 Epoch time: 12202.74307427 Element set: 351 Inclination: 097.8009 deg RA of node: 263.7348 deg Eccentricity: 0.0013365 Arg of perigee: 314.3631 deg Mean anomaly: 045.6451 deg Mean motion: 14.84464490 rev/day Decay rate: 1.660e-05 rev/day^2 Epoch rev: 22881 Checksum: 296
Satellite: DO-64 Catalog number: 32789 Epoch time: 12201.74591947 Element set: 0368 Inclination: 097.8111 deg RA of node: 264.9062 deg Eccentricity: 0.0013538 Arg of perigee: 313.5668 deg Mean anomaly: 046.4374 deg Mean motion: 14.86040519 rev/day Decay rate: 3.690e-05 rev/day^2 Epoch rev: 22871 Checksum: 329
Satellite: CO-66 Catalog number: 32791 Epoch time: 12201.63729600 Element set: 0350 Inclination: 097.7992 deg RA of node: 261.9686 deg Eccentricity: 0.0014743 Arg of perigee: 318.1545 deg Mean anomaly: 041.8422 deg Mean motion: 14.83523491 rev/day Decay rate: 1.313e-05 rev/day^2 Epoch rev: 22855 Checksum: 308
Satellite: RS-30 Catalog number: 32953 Epoch time: 12202.69241536 Element set: 978 Inclination: 082.5024 deg RA of node: 274.3053 deg Eccentricity: 0.0017730 Arg of perigee: 231.8829 deg Mean anomaly: 128.0659 deg Mean motion: 12.43025705 rev/day Decay rate: 1.0e-07 rev/day^2 Epoch rev: 18872 Checksum: 286
Satellite: TACSAT-3 Catalog number: 35001 Epoch time: 12121.72616188 Element set: 0001 Inclination: 040.4259 deg RA of node: 351.8840 deg Eccentricity: 0.0007146 Arg of perigee: 275.2650 deg Mean anomaly: 085.0693 deg Mean motion: 16.45157000 rev/day Decay rate: 1.5204951e-01 rev/day^2 Epoch rev: 16699 Checksum: 280
Satellite: PHARMSAT Catalog number: 35002 Epoch time: 12202.45849120 Element set: 998 Inclination: 040.4506 deg RA of node: 212.4054 deg Eccentricity: 0.0008134 Arg of perigee: 137.6601 deg Mean anomaly: 222.4866 deg Mean motion: 15.97548690 rev/day Decay rate: 2.16816e-03 rev/day^2 Epoch rev: 17962 Checksum: 292
Satellite: METEOR-M Catalog number: 35865 Epoch time: 12202.78604452 Element set: 608 Inclination: 098.6527 deg RA of node: 256.4783 deg Eccentricity: 0.0002083 Arg of perigee: 337.0049 deg Mean anomaly: 023.1033 deg Mean motion: 14.21865748 rev/day Decay rate: -3.2e-07 rev/day^2 Epoch rev: 14737 Checksum: 292
Satellite: RS-38 Catalog number: 35869 Epoch time: 12202.73183747 Element set: 616 Inclination: 098.6479 deg RA of node: 256.4151 deg Eccentricity: 0.0004164 Arg of perigee: 326.1923 deg Mean anomaly: 033.8987 deg Mean motion: 14.22079280 rev/day Decay rate: 3.8e-07 rev/day^2 Epoch rev: 14738 Checksum: 328
Satellite: JUGNU Catalog number: 37839 Epoch time: 12201.18215463 Element set: 0190 Inclination: 019.9616 deg RA of node: 164.3996 deg Eccentricity: 0.0018685 Arg of perigee: 213.9934 deg Mean anomaly: 145.9273 deg Mean motion: 14.12067822 rev/day Decay rate: 6.20e-06 rev/day^2 Epoch rev: 03977 Checksum: 312
